STARLINK-36625, 67668

Orbit data source: Space-Track

STARLINK-36625, 67668 is a payload satellite owned by SpaceX/Seattle (US) in SSO that was launched on Mon, 02 Feb 2026 UTC via an FALCON 9 launch vehicle from the Air Force Western Test Range (AFWTR). Payload-class satellites include a variety of spacecraft equipped with specific instruments for various scientific and technological missions. These include communications satellites like Starlink; space stations such as the ISS; scientific satellites like the Hubble; Earth observation satellites from companies like Planet Labs, Umbra, and HawkEye 360; GPS; miniature CubeSats for education and research; and military/defense satellites.

Loading next visibility...
Identifier
67668, 2026-022W
Orbit
SSO
Country
Flag of USUS
Related business
Manufacturer
SpaceX/Seattle
Mission
Operational spacecraft
Bus & Motor
STARLINK V2MO, Unknown motor
Mass
575 kg wet, ~530 kg dry
Launch date (UTC)
2026-02-02 (2 months ago)
Launch vehicle
FALCON 9
Launch site
Air Force Western Test Range (AFWTR)
Object type
Payload
Rocket body
Debris
Shape & HBR
Unknown shape, 17.7 m
Radar Cross Section
RCS unknown

Expand to show TLE details & history
Last TLE update: 15 hours ago

TLE from 15 hours ago
0 STARLINK-36625
1 67668U 26022W   26094.99291769  .00043605  00000-0  13439-2 0  9998
2 67668  97.2850 128.9575 0002276  85.8191 274.3312 15.33475481  9600
Epoch: 2026-04-04T23:49Z
TLE epoch observation values (Epoch: 2026-04-04T23:49:48.088Z)
Latitude
-0°
Longitude
-61.7976°
Altitude
468.447 km
Speed
7.632 km/s
True Right ascension
08h 35m 49s
True Declination
0° 00' 00"
Sunlit
Object was in full shadow at epoch
Visualization orbit readout
Latitude
Unknown
Longitude
Unknown
Altitude
Unknown
Speed
Unknown
Apparent Right ascension
Unknown
Apparent Declination
Unknown
Sunlit
N/A
Visualization observer readout
Local Sidereal Time
20:51:18
Azimuth
Unknown
Elevation
Unknown
Doppler factor
Unknown
Orbital elements
Apogee altitude
463.952 km
Perigee altitude
460.838 km
Semi-major axis
6,840.532 km
Eccentricity
0.00023
Inclination
97.285°
RAAN
128.9575°
Arg. of periapsis
85.8191°
True anomaly
274.30519°
Mean anomaly
274.3312°
Eccentric anomaly
274.3182°
Mean motion
3.83626 °/min
Orbital period
93.84 mins
BSTAR
0.0013439
Loading maneuver chart data...
Computing Atmospheric mass density...
Loading historical data...
Loading historical data...
Loading historical data...
Loading historical data...
Loading historical data...
Loading historical data...
Loading historical data...

Documentation

Showing up to 5 results
|